Fort Meade, MD

5:28 PM EDT on May 25, 2017 (GMT -0400)
Tipton

Weather History for KFME - October, 2013

Change the Weather History Date:

Monday, October 14, 2013

  Actual Average (KBWI) Record (KBWI)
Temperature  
Mean Temperature 59 °F -  
Max Temperature 68 °F 70 °F 86 °F (1975)
Min Temperature 50 °F 47 °F 29 °F (1988)
Degree Days  
Heating Degree Days 6    
Growing Degree Days 9 (Base 50)    
Moisture  
Dew Point 51 °F    
Average Humidity 80    
Maximum Humidity 100    
Minimum Humidity 52    
Precipitation  
Precipitation 0.00 in - - ()
Sea Level Pressure  
Sea Level Pressure 30.32 in    
Wind  
Wind Speed 2 mph (NE)    
Max Wind Speed 7 mph    
Max Gust Speed -    
Visibility 9 miles    
Events      
Averages and records for this station are not official NWS values.
T = Trace of Precipitation, MM = Missing Value Source: NWS Daily Summary

Daily Weather History Graph

Daily Weather History Graph

Search for Another Location

Airport or City:

Trip Planner

Search our weather history database for the weather conditions in past years. The results will help you decide how hot, cold, wet, or windy it might be!

Date:

Astronomy

Oct. 14, 2013 Rise Set
Actual Time 7:15 AM EDT 6:29 PM EDT
Civil Twilight 6:48 AM EDT 6:56 PM EDT
Nautical Twilight 6:17 AM EDT 7:27 PM EDT
Astronomical Twilight 5:46 AM EDT 7:58 PM EDT
Moon 3:56 PM EDT (10/14) 2:32 AM EDT (10/14)
Length of Visible Light 12h 07m
Length of Day
11h 13m
Waxing Gibbous, 79% of the Moon is Illuminated
Oct 14
Waxing Gibbous
Oct 18
Full
Oct 26
Last Quarter
Nov 3
New
Nov 10
First Quarter

Hourly Weather History & Observations

Time (EDT) Temp. Dew Point Humidity Pressure Visibility Wind Dir Wind Speed Gust Speed Precip Events Conditions
12:00 AM 50.0 °F 50.0 °F 100% 30.35 in 7.0 mi Calm Calm - N/A   Clear
12:21 AM 51.8 °F 50.0 °F 94% 30.35 in 7.0 mi Calm Calm - N/A   Mostly Cloudy
12:42 AM 53.6 °F 51.8 °F 94% 30.35 in 7.0 mi Calm Calm - N/A   Overcast
1:00 AM 53.6 °F 51.8 °F 94% 30.34 in 7.0 mi Calm Calm - N/A   Overcast
1:21 AM 53.6 °F 51.8 °F 94% 30.35 in 7.0 mi Calm Calm - N/A   Overcast
1:42 AM 53.6 °F 51.8 °F 94% 30.35 in 7.0 mi Calm Calm - N/A   Overcast
2:00 AM 53.6 °F 53.6 °F 100% 30.34 in 10.0 mi NNE 3.5 mph - N/A   Overcast
2:21 AM 55.4 °F 51.8 °F 88% 30.34 in 7.0 mi North 3.5 mph - N/A   Overcast
2:42 AM 55.4 °F 51.8 °F 88% 30.34 in 7.0 mi NNE 3.5 mph - N/A   Overcast
3:00 AM 55.4 °F 51.8 °F 88% 30.34 in 7.0 mi NNE 4.6 mph - N/A   Overcast
3:21 AM 53.6 °F 51.8 °F 94% 30.33 in 7.0 mi Calm Calm - N/A   Overcast
3:42 AM 53.6 °F 51.8 °F 94% 30.34 in 10.0 mi North 3.5 mph - N/A   Overcast
4:00 AM 55.4 °F 51.8 °F 88% 30.34 in 10.0 mi North 4.6 mph - N/A   Overcast
4:21 AM 55.4 °F 51.8 °F 88% 30.34 in 7.0 mi Calm Calm - N/A   Overcast
4:42 AM 55.4 °F 51.8 °F 88% 30.35 in 10.0 mi Calm Calm - N/A   Overcast
5:00 AM 55.4 °F 51.8 °F 88% 30.35 in 10.0 mi NNE 3.5 mph - N/A   Overcast
5:21 AM 55.4 °F 51.8 °F 88% 30.35 in 10.0 mi Calm Calm - N/A   Overcast
5:42 AM 55.4 °F 51.8 °F 88% 30.35 in 10.0 mi Calm Calm - N/A   Overcast
6:00 AM 55.4 °F 51.8 °F 88% 30.35 in 10.0 mi Calm Calm - N/A   Overcast
6:21 AM 55.4 °F 51.8 °F 88% 30.35 in 10.0 mi North 3.5 mph - N/A   Overcast
6:42 AM 55.4 °F 50.0 °F 82% 30.35 in 10.0 mi Calm Calm - N/A   Overcast
7:00 AM 55.4 °F 50.0 °F 82% 30.35 in 10.0 mi NE 3.5 mph - N/A   Overcast
7:21 AM 55.4 °F 50.0 °F 82% 30.34 in 10.0 mi NE 4.6 mph - N/A   Overcast
7:42 AM 55.4 °F 50.0 °F 82% 30.35 in 10.0 mi NNE 3.5 mph - N/A   Overcast
8:03 AM 55.4 °F 50.0 °F 82% 30.35 in 10.0 mi Calm Calm - N/A   Overcast
8:21 AM 55.4 °F 50.0 °F 82% 30.35 in 10.0 mi NNE 3.5 mph - N/A   Overcast
8:42 AM 57.2 °F 50.0 °F 77% 30.36 in 10.0 mi NNE 4.6 mph - N/A   Mostly Cloudy
9:03 AM 59.0 °F 50.0 °F 72% 30.36 in 10.0 mi ENE 4.6 mph - N/A   Clear
9:21 AM 59.0 °F 51.8 °F 77% 30.37 in 10.0 mi NE 4.6 mph - N/A   Clear
9:42 AM 59.0 °F 51.8 °F 77% 30.37 in 10.0 mi NE 4.6 mph - N/A   Clear
10:03 AM 60.8 °F 51.8 °F 72% 30.37 in 10.0 mi ENE 5.8 mph - N/A   Clear
10:21 AM 62.6 °F 51.8 °F 68% 30.37 in 10.0 mi ENE 4.6 mph - N/A   Scattered Clouds
10:42 AM 60.8 °F 51.8 °F 72% 30.36 in 10.0 mi ENE 6.9 mph - N/A   Mostly Cloudy
11:03 AM 62.6 °F 51.8 °F 68% 30.35 in 10.0 mi NE 5.8 mph - N/A   Scattered Clouds
11:21 AM 64.4 °F 51.8 °F 64% 30.35 in 10.0 mi NNE 5.8 mph - N/A   Scattered Clouds
11:42 AM 62.6 °F 51.8 °F 68% 30.34 in 10.0 mi North 5.8 mph - N/A   Scattered Clouds
12:03 PM 62.6 °F 51.8 °F 68% 30.34 in 10.0 mi ENE 3.5 mph - N/A   Scattered Clouds
12:21 PM 64.4 °F 51.8 °F 64% 30.33 in 10.0 mi North 5.8 mph - N/A   Mostly Cloudy
12:42 PM 64.4 °F 51.8 °F 64% 30.32 in 10.0 mi North 4.6 mph - N/A   Mostly Cloudy
1:03 PM 62.6 °F 50.0 °F 63% 30.31 in 10.0 mi ENE 4.6 mph - N/A   Mostly Cloudy
1:21 PM 64.4 °F 51.8 °F 64% 30.30 in 10.0 mi Calm Calm - N/A   Clear
1:42 PM 64.4 °F 51.8 °F 64% 30.30 in 10.0 mi Calm Calm - N/A   Scattered Clouds
2:03 PM 68.0 °F 51.8 °F 56% 30.29 in 10.0 mi Calm Calm - N/A   Clear
2:21 PM 66.2 °F 50.0 °F 56% 30.28 in 10.0 mi Calm Calm - N/A   Clear
2:42 PM 68.0 °F 50.0 °F 52% 30.28 in 10.0 mi ESE 4.6 mph - N/A   Clear
3:03 PM 68.0 °F 51.8 °F 56% 30.27 in 10.0 mi Calm Calm - N/A   Clear
3:21 PM 68.0 °F 50.0 °F 52% 30.27 in 10.0 mi Calm Calm - N/A   Clear
3:42 PM 68.0 °F 50.0 °F 52% 30.26 in 10.0 mi East 4.6 mph - N/A   Clear
4:03 PM 68.0 °F 50.0 °F 52% 30.26 in 10.0 mi ESE 3.5 mph - N/A   Clear
4:24 PM 66.2 °F 50.0 °F 56% 30.26 in 10.0 mi ESE 4.6 mph - N/A   Clear
4:42 PM 64.4 °F 50.0 °F 59% 30.26 in 10.0 mi Calm Calm - N/A   Clear
5:03 PM 64.4 °F 51.8 °F 64% 30.26 in 10.0 mi East 4.6 mph - N/A   Clear
5:24 PM 64.4 °F 51.8 °F 64% 30.26 in 10.0 mi SE 4.6 mph - N/A   Clear
5:42 PM 62.6 °F 51.8 °F 68% 30.26 in 10.0 mi ESE 4.6 mph - N/A   Clear
6:03 PM 62.6 °F 51.8 °F 68% 30.26 in 10.0 mi ESE 5.8 mph - N/A   Clear
6:24 PM 60.8 °F 51.8 °F 72% 30.27 in 10.0 mi ESE 3.5 mph - N/A   Clear
6:42 PM 59.0 °F 51.8 °F 77% 30.27 in 10.0 mi Calm Calm - N/A   Clear
7:03 PM 55.4 °F 51.8 °F 88% 30.28 in 10.0 mi Calm Calm - N/A   Clear
7:24 PM 53.6 °F 51.8 °F 94% 30.28 in 10.0 mi Calm Calm - N/A   Clear
7:42 PM 53.6 °F 51.8 °F 94% 30.28 in 10.0 mi Calm Calm - N/A   Clear
8:03 PM 53.6 °F 50.0 °F 88% 30.28 in 10.0 mi Calm Calm - N/A   Clear
8:24 PM 51.8 °F 50.0 °F 94% 30.28 in 10.0 mi Calm Calm - N/A   Clear
8:42 PM 51.8 °F 50.0 °F 94% 30.28 in 10.0 mi Calm Calm - N/A   Clear
9:03 PM 51.8 °F 50.0 °F 94% 30.28 in 10.0 mi Calm Calm - N/A   Clear
9:24 PM 51.8 °F 50.0 °F 94% 30.28 in 4.0 mi Calm Calm - N/A   Clear
9:42 PM 51.8 °F 50.0 °F 94% 30.28 in 7.0 mi Calm Calm - N/A   Clear
10:03 PM 51.8 °F 50.0 °F 94% 30.28 in 7.0 mi Calm Calm - N/A   Clear
10:24 PM 50.0 °F 50.0 °F 100% 30.28 in 7.0 mi Calm Calm - N/A   Clear
10:42 PM 50.0 °F 50.0 °F 100% 30.28 in 7.0 mi Calm Calm - N/A   Clear
11:03 PM 50.0 °F 50.0 °F 100% 30.28 in 7.0 mi Calm Calm - N/A   Clear
11:24 PM 50.0 °F 48.2 °F 94% 30.27 in 7.0 mi Calm Calm - N/A   Clear
11:42 PM 50.0 °F 48.2 °F 94% 30.28 in 7.0 mi Calm Calm - N/A   Clear